Other Surface Observations
Issued by NWS

Current Version | Previous Version | Text Only | Print | Product List | Glossary On
Versions: 1 2 3 4 5 6 7 8 9 10 11 12 13 14 15 16 17 18 19 20 21 22 23 24 25 26 27 28 29 30 31 32 33 34 35 36 37 38 39 40 41 42 43 44 45 46 47 48 49 50
000
SXUS52 KTAE 281918
OSOTAE
OSOTAE
North Florida/South Alabama/Southwest Georgia Weather Roundup
National Weather Service Tallahassee Florida
200 PM EST SAT FEB 28 2015

Note: "fair" indicates few or no clouds below 12,000 feet with no
significant weather and/or obstructions to visibility.

!FLZ017-115-028-034-025-282000
...North Florida...

CITY           SKY/WX    TMP DP  RH WIND       PRES   REMARKS
TALLAHASSEE    CLOUDY    52  47  83 E10       30.40F
APALACHICOLA   CLOUDY    59  49  69 NE12      30.36F
PERRY          CLOUDY    52  49  92 NE8       30.40F
CROSS CITY       N/A     59  54  83 NE9G17    30.36F
JACKSONVILLE   CLOUDY    51  51 100 NE21G26   30.41F FOG
$$

!FLZ112-006-005-002-011-282000
...Florida Panhandle...

CITY           SKY/WX    TMP DP  RH WIND       PRES   REMARKS
MARIANNA       LGT RAIN  49  48  97 NE9       30.41F FOG     WCI  45
BONIFAY        CLOUDY    51  45  79 NE8       30.42F
PANAMA CITY NW CLOUDY    53  47  79 NE16G23   30.37F
TYNDALL AFB    CLOUDY    55  49  81 NE12G21   30.36F
TYND DRONE APT MOCLDY    54  50  86 NE17G23   30.36F
DE FUNIAK SPR  CLOUDY    54  45  72 E12       30.40F
EGLIN AFB      CLOUDY    58  46  65 E12       30.37F
DESTIN         CLOUDY    56  46  69 E12G21    30.38F
HURLBURT       CLOUDY    58  43  57 E16       30.36F
CRESTVIEW      CLOUDY    58  45  62 E8        30.40F
PENSACOLA      CLOUDY    59  45  59 E8        30.37F
$$

!ALZ063-066-282000
...South Alabama...

CITY           SKY/WX    TMP DP  RH WIND       PRES   REMARKS
DOTHAN         CLOUDY    52  43  71 E14       30.45F
OZARK CAIRNS   CLOUDY    54  42  65 E9        30.41F
FT RUCKER HELI CLOUDY    57  43  59 E6        30.41F
RUCKER HELI 3  PTSUNNY   56  44  64 E12G20    30.42F
RUCKER HELI 2  CLOUDY    55  42  61 E13       30.42F
FLORALA APT    CLOUDY    56  43  61 E9        30.41F
ANDALUSIA      CLOUDY    62  42  47 E12G17    30.40F
TROY           CLOUDY    61  40  45 SE12      30.42F
EUFALA         CLOUDY    63  43  48 SE13G18   30.43F
MOBILE         MOSUNNY   62  41  46 E10       30.36F
$$

!GAZ120>161-282000
...Southwest and South Central Georgia...

CITY           SKY/WX    TMP DP  RH WIND       PRES   REMARKS
THOMASVILLE    CLOUDY    48  48 100 E12       30.44F WCI  43
BAINBRIDGE     CLOUDY    52  48  87 NE12      30.44F FOG
MOODY AFB      LGT RAIN  46  45  93 NE8       30.44F FOG     WCI  42
VALDOSTA       CLOUDY    48  46  93 NE8       30.44F WCI  44
MOULTRIE       RAIN      46  46 100 NE8       30.45F WCI  42
BLAKELY        DRIZZLE   50  48  93 NE7       30.45F
ALBANY         LGT RAIN  48  44  86 NE10      30.49F FOG     WCI  43
TIFTON         DRIZZLE   44  44  99 NE8       30.47F WCI  39
FITZGERALD     CLOUDY    46  44  92 NE13G18   30.51F WCI  40
CORDELE        CLOUDY    50  37  60 E13       30.51F
AMERICUS       CLOUDY    50  37  62 E12G17    30.50F
HOMERVILLE     LGT RAIN  46  46 100 NE8G16    30.46F WCI  42
$$

!GMZ750-755-770-775-282000
...Coastal and Buoy Obs...

STATION/POSITION TIME  TEMP    WIND        PRES    VSBY  WAVE
                       AIR SEA DIR/SP/G                  HT/PER
                 (UTC) (F)     (DEG/KT/KT) (MB)    (MI)  (FT/S)
KEATON BEACH     1900   54      40/ 15/ 20 1027.9F
CEDAR KEY        1859   60      50/ 13/ 15 1027.0F
C TOWER          1900   53      50/ 25/ 27 1027.1F
APALACHICOLA BUO 1900   60 65   70/ 17/ 21 1025.8F         5/ 6
PANAMA CITY BUOY 1814   60 67   80/ 19/ 21 1026.3F         6/ 7
MOBILE BUOY      1838   62 70   90/ 14/ 16 1027.2F         5/ 7
ORANGE BCH AL BU 1900   54 62   70/ 17/ 19 1027.6F         5/ 6
$$



USA.gov is the U.S. government's official web portal to all federal, state and local government web resources and services.